Ставрополь

URMT, Температура в порту: C, qnh:1017 hPa.

 

Аэропорт Ставрополь

IATA: STW, ICAO: URMT

Схемы: ЦАИ ГА, Jeppesen

Сценарии:
fs9                           fsx                            x-plane

МЕТАР:  URMT 182000Z 15006MPS 2400 BR FEW006 03/03 Q1017 R07/150060 TEMPO 0400 FG OVC002 RMK QFE722

Международный аэропорт Шпаковское Ставрополь представляет собой авиатранспортный узел федерального значения и располагается в окрестностях регионального центра Ставропольского края. Несмотря на то, что аэропорт имеет в своём составе всего лишь одну взлётно-посадочную полосу, протяжённость которой составляет 2600 метров, а ширина 48 метров, ежедневно аэропорт обслуживает десятки авиарейсов, преимущественно чартерных, выполняемых на бизнес-джетах. В ближайших перспективах планируется увеличение длины ВПП до 3000 метров.

Аэропорт «Ставрополь» имеет допуски на приём следующих типов самолётов: Airbus A319, Airbus A320, Airbus A321, BAe 146, Boeing 737, Boeing 757, Bombardier CRJ 100/200, SAAB-2000, Sukhoi Superjet 100, Ан-12, Ан-24, Ан-148, Ил-14, Ил-18, Ил-76, Ту-134, Ту-154, Ту-204, Ту-214, Як-40, Як-42 и более лёгких, а также вертолётов всех типов.